User: anonymous   Login
Location: Newark
(44.5869°N, 123.1150°W)
Time: 20:45:38
(UTC+00:00)
Language:

N. Korean satellite - Orbit

View from above orbital plane
View from above orbital plane
View from above satellite
View from above satellite

Ground track
Ground track

The orbit data is extracted from the following two-line orbital elements,

1 39026U 12072A   20302.70999202  .00002401  00000-0  86084-4 0  9994
2 39026  97.2312 295.6505 0038389 128.1560 232.3150 15.28984376437667
Epoch (UTC): 28 October 2020 17:02:23
Eccentricity: 0.0038389
inclination: 97.2312°
perigee height: 452 km
apogee height: 505 km
right ascension of ascending node: 295.6505°
argument of perigee: 128.1560°
revolutions per day: 15.28984376
mean anomaly at epoch: 232.3150°
orbit number at epoch: 43766

The dashed part of the orbit path shows where the satellite is in the earth's shadow,  

DLR